Dewpoint
71 71 71 71 70 71 71 71 71 71 71 72 72 73 73 74 74 74 74 74 74 74 73 72 71 70 69 68 67 67 66 66 66 65 65 65 65 65 65 65 64 65
71 71 71 71 71 71 71 71 71 71 71 71 72 73 73 74 74 74 74 74 74 73 73 72 71 70 69 68 67 66 66 66 65 66 65 65 65 65 65 65 65 65
71 71 71 71 70 70 70 71 71 71 71 71 72 73 73 74 74 74 74 74 73 73 73 72 71 70 69 68 67 67 66 65 65 66 66 65 65 65 65 64 65 65
71 71 71 71 71 71 71 71 71 71 71 71 71 72 73 73 74 74 74 74 73 73 73 72 71 70 69 68 68 67 67 66 65 66 66 66 66 66 66 66 66 66
71 71 71 71 71 71 71 70 70 70 70 71 71 73 73 73 73 73 73 73 73 73 72 72 71 70 69 69 68 67 67 66 66 66 66 66 66 66 66 66 66 65
71 71 71 71 71 71 71 70 70 70 70 70 71 72 73 73 73 73 73 73 73 72 72 71 71 70 69 69 67 67 67 66 66 66 65 65 65 66 66 66 65 65
71 71 71 71 71 71 71 71 71 71 70 71 71 72 72 73 73 73 73 73 72 72 72 71 71 70 69 68 68 67 67 66 66 66 65 65 66 66 66 66 66 65
71 71 71 71 71 71 71 71 71 71 71 71 71 71 72 72 72 72 73 73 72 72 72 71 71 70 69 68 68 67 67 66 66 66 65 65 66 66 66 66 66 66
71 71 71 71 71 70 70 70 71 71 71 71 70 70 72 72 72 72 72 72 72 72 72 71 71 70 69 68 67 67 67 66 66 66 66 65 65 65 65 66 66 66
71 71 70 70 70 70 70 70 70 71 71 71 70 70 71 72 72 72 72 72 72 72 71 71 71 70 70 68 67 67 67 67 66 66 65 65 65 65 65 65 65 65
70 70 70 70 70 70 70 70 70 70 71 71 71 70 71 71 71 72 72 71 71 71 71 71 70 70 70 69 68 67 67 66 66 66 66 65 65 65 66 65 65 65
70 70 70 70 70 70 70 70 70 71 71 71 71 71 71 71 71 71 71 71 71 71 71 71 71 70 70 69 68 67 67 66 66 66 66 66 65 65 66 66 65 65
70 70 70 70 71 71 71 71 71 71 70 71 71 71 70 70 70 71 71 71 71 71 71 71 71 70 70 69 69 68 67 66 66 66 66 66 66 65 65 65 65 65
70 70 70 70 71 71 71 71 71 71 71 71 71 71 71 70 70 70 71 71 71 71 71 71 70 70 70 69 69 68 67 67 66 65 65 65 66 66 65 65 65 65
70 70 70 71 71 71 71 71 71 72 72 72 72 71 71 71 71 71 71 71 71 71 71 70 70 70 69 69 69 68 68 67 66 66 65 65 65 65 65 65 66 65
70 71 71 71 71 71 71 71 71 72 72 72 72 71 72 72 71 71 71 70 70 70 70 70 70 70 67 63 64 68 68 67 67 66 66 65 65 65 65 65 65 65
70 71 71 71 71 71 71 71 71 72 72 72 72 72 72 72 72 71 70 70 70 70 70 70 70 69 64 62 62 63 67 67 67 67 66 66 66 65 65 65 65 65
70 71 71 71 71 71 71 71 71 71 72 72 72 72 72 72 71 71 71 71 71 70 70 70 70 65 62 61 61 61 63 67 67 67 66 66 66 65 65 65 65 65
70 71 71 71 71 71 71 72 71 71 71 71 71 72 72 72 72 71 71 71 71 70 70 70 70 65 62 60 61 60 60 63 67 67 67 66 66 66 65 65 65 65
70 71 71 71 71 72 72 72 72 71 71 72 72 72 72 72 71 71 71 71 71 71 70 70 70 64 61 60 60 59 60 62 67 67 67 66 66 66 66 66 66 66
71 71 71 71 71 72 72 72 72 72 72 72 71 71 71 71 71 71 71 71 71 71 70 70 70 63 59 58 58 58 59 60 67 67 67 67 67 66 67 66 67 67
71 71 71 71 71 72 72 72 72 72 72 72 72 71 72 71 72 71 71 71 71 71 70 70 70 61 59 58 57 57 58 64 66 68 68 68 67 67 67 67 67 67
71 71 71 71 72 72 72 72 72 72 72 72 72 71 71 71 71 71 71 71 71 71 71 70 70 63 58 57 56 56 59 65 67 67 67 67 67 68 68 67 67 67
71 71 71 71 71 71 71 71 72 72 72 72 72 71 71 71 71 71 71 71 71 71 70 70 70 64 57 56 55 56 61 66 67 67 67 67 67 67 68 68 67 68
71 72 72 71 71 71 71 71 72 72 72 72 72 72 71 72 71 71 71 71 71 70 67 69 70 65 56 56 55 55 61 67 67 67 66 67 67 66 67 67 67 68
71 72 72 72 71 72 72 72 72 72 72 72 72 72 71 71 71 71 71 71 71 70 70 70 70 70 61 55 54 55 58 67 67 67 66 66 66 66 66 66 67 67